GW3485 Weather Reports


time (UTC)temp
F
wind
direction
speed
knots
gust
knots
rain 1hr
in
rain 24hr
in
rain mn
in
humidity
%
barometer
mb
20260508012803 46 254 0.9 0.9 0.00 0.00 0.00 75 1014.4
20260508012301 47 254 0.0 0.9 0.00 0.00 0.00 76 1014.3
20260508011758 48 254 0.0 0.0 0.00 0.00 0.00 72 1014.5
20260508011256 49 253 0.0 0.0 0.00 0.00 0.00 65 1014.3
20260508010752 51 269 0.9 1.7 0.00 0.00 0.00 57 1014.3
20260508010250 51 267 1.7 1.7 0.00 0.00 0.00 54 1014.3
20260508005747 51 257 0.9 0.9 0.00 0.00 0.00 55 1014.1
20260508005244 53 239 0.9 0.9 0.00 0.00 0.00 53 1014.0
20260508004739 51 259 0.0 0.9 0.00 0.00 0.00 56 1014.0
20260508004236 53 278 0.9 0.9 0.00 0.00 0.00 52 1014.2
20260508003733 53 264 0.9 0.9 0.00 0.00 0.00 51 1013.8
20260508003230 54 258 0.0 0.0 0.00 0.00 0.00 47 1013.8
20260508002726 54 261 0.9 0.9 0.00 0.00 0.00 47 1013.5
20260508002224 54 92 1.7 2.6 0.00 0.00 0.00 44 1013.6
20260508001719 54 104 1.7 2.6 0.00 0.00 0.00 47 1013.6
20260508001215 54 264 0.9 0.9 0.00 0.00 0.00 44 1013.4
20260508000712 55 304 0.9 0.9 0.00 0.00 0.00 46 1013.2
20260508000212 54 280 1.7 1.7 0.00 0.00 0.00 44 1013.1
20260507235705 56 251 0.9 1.7 0.00 0.00 0.00 42 1013.1
20260507235203 56 8 2.6 2.6 0.00 0.00 0.00 42 1013.1
20260507234700 56 14 0.9 1.7 0.00 0.00 0.00 42 1012.9
20260507234156 56 261 0.9 1.7 0.00 0.00 0.00 43 1012.7
20260507233653 57 198 0.9 0.9 0.00 0.00 0.00 41 1012.8
20260507233151 57 256 0.9 0.9 0.00 0.00 0.00 42 1012.9
20260507232648 57 94 2.6 2.6 0.00 0.00 0.00 41 1012.7
20260507232145 57 90 2.6 3.5 0.00 0.00 0.00 42 1012.9
20260507231641 57 295 1.7 2.6 0.00 0.00 0.00 44 1012.6
20260507231138 58 327 1.7 1.7 0.00 0.00 0.00 41 1012.6
20260507230635 58 151 1.7 2.6 0.00 0.00 0.00 39 1012.5
20260507230132 57 29 3.5 5.2 0.00 0.00 0.00 39 1012.5
20260507225632 58 43 2.6 2.6 0.00 0.00 0.00 41 1012.6
20260507225129 58 140 4.3 5.2 0.00 0.00 0.00 40 1012.4
20260507224624 58 120 3.5 6.1 0.00 0.00 0.00 39 1012.7
20260507224121 59 211 0.9 0.9 0.00 0.00 0.00 39 1012.4
20260507223617 60 347 3.5 3.5 0.00 0.00 0.00 39 1012.4
20260507223114 60 68 2.6 3.5 0.00 0.00 0.00 41 1012.4
20260507222611 60 125 2.6 2.6 0.00 0.00 0.00 38 1012.4
20260507222108 60 279 5.2 8.7 0.00 0.00 0.00 39 1012.3
20260507221604 60 179 3.5 6.1 0.00 0.00 0.00 37 1012.2
20260507221101 61 46 2.6 3.5 0.00 0.00 0.00 37 1012.0
20260507220558 61 199 4.3 5.2 0.00 0.00 0.00 37 1012.2
20260507220055 60 40 1.7 1.7 0.00 0.00 0.00 41 1012.1
20260507215551 59 273 0.9 0.9 0.00 0.00 0.00 39 1012.0
20260507215050 59 218 1.7 2.6 0.00 0.00 0.00 40 1011.8
20260507214546 60 353 4.3 5.2 0.00 0.00 0.00 39 1011.9
20260507214042 60 108 2.6 3.5 0.00 0.00 0.00 38 1011.9
20260507213539 61 65 2.6 5.2 0.00 0.00 0.00 36 1011.7
20260507213036 61 23 2.6 3.5 0.00 0.00 0.00 39 1011.8
20260507212532 61 46 2.6 2.6 0.00 0.00 0.00 39 1011.9
20260507212029 61 246 1.7 1.7 0.00 0.00 0.00 42 1011.7
20260507211526 60 302 0.9 1.7 0.00 0.00 0.00 41 1011.7
20260507211022 60 138 6.1 7.8 0.00 0.00 0.00 36 1011.8
20260507210519 62 25 2.6 3.5 0.00 0.00 0.00 36 1011.7
20260507210016 62 106 1.7 2.6 0.00 0.00 0.00 39 1011.7
20260507205512 62 236 1.7 3.5 0.00 0.00 0.00 36 1011.5
20260507205008 60 129 2.6 2.6 0.00 0.00 0.00 39 1011.8
20260507204505 60 129 2.6 2.6 0.00 0.00 0.00 39 1011.8
20260507204003 60 231 0.9 0.9 0.00 0.00 0.00 41 1011.7
20260507203500 60 271 3.5 5.2 0.00 0.00 0.00 37 1011.9
20260507202957 61 189 1.7 1.7 0.00 0.00 0.00 38 1011.6
20260507202453 60 255 2.6 2.6 0.00 0.00 0.00 41 1011.6
20260507201949 61 73 4.3 7.0 0.00 0.00 0.00 37 1011.5
20260507201444 62 170 4.3 7.0 0.00 0.00 0.00 37 1011.6
20260507200941 64 190 3.5 3.5 0.00 0.00 0.00 36 1011.7
20260507200436 61 271 1.7 1.7 0.00 0.00 0.00 39 1011.8
20260507195932 61 178 2.6 2.6 0.00 0.00 0.00 40 1011.7
20260507195430 61 248 1.7 1.7 0.00 0.00 0.00 39 1012.0
20260507194928 63 146 5.2 6.1 0.00 0.00 0.00 36 1011.9
20260507194424 62 103 4.3 6.1 0.00 0.00 0.00 36 1012.2
20260507193920 61 244 0.9 0.9 0.00 0.00 0.00 37 1011.9
20260507193418 59 73 1.7 1.7 0.00 0.00 0.00 41 1012.1
20260507192914 59 180 0.9 1.7 0.00 0.00 0.00 44 1012.3
20260507192410 60 232 2.6 5.2 0.00 0.00 0.00 40 1012.3
20260507191907 60 246 0.9 1.7 0.00 0.00 0.00 39 1012.2
20260507191403 62 253 2.6 5.2 0.00 0.00 0.00 42 1012.3
20260507190859 61 188 3.5 5.2 0.00 0.00 0.00 42 1012.3
20260507190358 59 67 4.3 6.1 0.00 0.00 0.00 45 1012.3
20260507185856 59 313 2.6 2.6 0.00 0.00 0.00 47 1012.3
20260507185353 60 183 3.5 5.2 0.00 0.00 0.00 41 1012.3
20260507184850 59 234 0.9 1.7 0.00 0.00 0.00 42 1012.4
20260507184348 60 357 3.5 3.5 0.00 0.00 0.00 47 1012.3
20260507183844 59 357 1.7 2.6 0.00 0.00 0.00 45 1012.4
20260507183342 60 324 2.6 2.6 0.00 0.00 0.00 44 1012.5
20260507182839 58 269 1.7 3.5 0.00 0.00 0.00 49 1012.4
20260507182335 58 86 3.5 6.1 0.00 0.00 0.00 46 1012.5
20260507181831 59 16 3.5 3.5 0.00 0.00 0.00 48 1012.5
20260507181327 59 125 4.3 6.1 0.00 0.00 0.00 44 1012.4
20260507180824 59 166 2.6 2.6 0.00 0.00 0.00 45 1012.8
20260507180321 58 90 2.6 2.6 0.00 0.00 0.00 45 1012.7
20260507175817 58 175 1.7 1.7 0.00 0.00 0.00 46 1012.6
20260507175314 58 278 1.7 1.7 0.00 0.00 0.00 47 1012.7
20260507174811 59 325 1.7 1.7 0.00 0.00 0.00 49 1012.7
20260507173558 57 27 2.6 2.6 0.00 0.00 0.00 50 1013.0
20260507173055 57 27 2.6 2.6 0.00 0.00 0.00 50 1013.0
20260507172550 57 47 1.7 2.6 0.00 0.00 0.00 49 1013.0
20260507172048 59 25 3.5 5.2 0.00 0.00 0.00 46 1013.0
20260507171543 59 300 1.7 1.7 0.00 0.00 0.00 54 1013.1
20260507171040 59 186 2.6 2.6 0.00 0.00 0.00 48 1013.2
20260507170536 60 275 4.3 5.2 0.00 0.00 0.00 46 1013.3
20260507170033 58 241 0.9 1.7 0.00 0.00 0.00 53 1013.3
20260507165529 57 136 5.2 7.0 0.00 0.00 0.00 47 1013.2
20260507165026 59 198 1.7 2.6 0.00 0.00 0.00 46 1013.2
20260507164523 59 306 0.9 1.7 0.00 0.00 0.00 47 1013.3
20260507164020 59 221 3.5 5.2 0.00 0.00 0.00 55 1013.6
20260507163516 59 91 3.5 3.5 0.00 0.00 0.00 46 1013.6
20260507163014 57 205 0.9 1.7 0.00 0.00 0.00 46 1013.5
20260507162509 56 214 0.9 1.7 0.00 0.00 0.00 48 1013.3
20260507162006 57 223 1.7 1.7 0.00 0.00 0.00 49 1013.7
20260507161502 57 29 2.6 3.5 0.00 0.00 0.00 46 1013.6
20260507160959 57 48 5.2 5.2 0.00 0.00 0.00 46 1013.6
20260507160455 56 261 0.0 0.0 0.00 0.00 0.00 50 1013.7
20260507155950 56 357 3.5 6.1 0.00 0.00 0.00 47 1014.0
20260507155447 56 203 0.9 1.7 0.00 0.00 0.00 49 1014.0
20260507154944 58 220 1.7 1.7 0.00 0.00 0.00 45 1013.6
20260507154440 58 249 1.7 2.6 0.00 0.00 0.00 45 1014.0
20260507153938 56 241 0.9 0.9 0.00 0.00 0.00 50 1014.1
20260507153434 56 292 0.9 0.9 0.00 0.00 0.00 49 1014.0
20260507152005 55 355 2.6 2.6 0.00 0.00 0.00 48 1014.1
20260507151501 55 355 2.6 2.6 0.00 0.00 0.00 48 1014.1
20260507150958 57 62 2.6 2.6 0.00 0.00 0.00 47 1014.0
20260507150455 56 271 1.7 1.7 0.00 0.00 0.00 54 1014.2
20260507145951 57 157 2.6 3.5 0.00 0.00 0.00 47 1014.2
20260507145447 57 201 1.7 1.7 0.00 0.00 0.00 46 1014.2
20260507144944 56 249 0.9 0.9 0.00 0.00 0.00 46 1014.3
20260507144441 55 235 0.9 1.7 0.00 0.00 0.00 50 1014.4
20260507143938 56 263 2.6 5.2 0.00 0.00 0.00 48 1014.5
20260507143435 57 264 2.6 2.6 0.00 0.00 0.00 51 1014.6
20260507140155 55 169 3.5 5.2 0.00 0.00 0.00 54 1015.1
20260507135652 55 169 3.5 5.2 0.00 0.00 0.00 54 1015.1
20260507135149 54 248 0.0 0.9 0.00 0.00 0.00 56 1015.2
20260507134645 54 312 3.5 5.2 0.00 0.00 0.00 55 1015.2
20260507134141 54 229 1.7 1.7 0.00 0.00 0.00 59 1015.3
20260507133637 54 255 1.7 2.6 0.00 0.00 0.00 60 1015.3
20260507133135 54 166 1.7 3.5 0.00 0.00 0.00 60 1015.5
20260507132632 53 263 1.7 1.7 0.00 0.00 0.00 61 1015.5
20260507132128 53 199 0.9 1.7 0.00 0.00 0.00 66 1015.5
20260507131625 52 186 1.7 2.6 0.00 0.00 0.00 64 1015.4
20260507131123 50 214 1.7 1.7 0.00 0.00 0.00 76 1015.3
20260507130619 48 251 0.0 0.0 0.00 0.00 0.00 83 1015.4
20260507130117 48 251 0.0 0.0 0.00 0.00 0.00 89 1015.4
20260507125616 46 251 0.0 0.0 0.00 0.00 0.00 89 1015.4
20260507125113 45 251 0.0 0.0 0.00 0.00 0.00 92 1015.3
20260507124609 45 251 0.0 0.0 0.00 0.00 0.00 99 1015.4
20260507124107 44 251 0.0 0.0 0.00 0.00 0.00 99 1015.5
20260507123605 43 251 0.0 0.0 0.00 0.00 0.00 99 1015.6
20260507123101 43 251 0.0 0.0 0.00 0.00 0.00 99 1015.4
20260507122556 43 251 0.0 0.0 0.00 0.00 0.00 99 1015.5
20260507122053 44 251 0.0 0.0 0.00 0.00 0.00 99 1015.5
20260507121548 42 252 0.0 0.0 0.00 0.00 0.00 99 1015.5
20260507121045 39 252 0.0 0.0 0.00 0.00 0.00 99 1015.4
20260507120541 37 252 0.0 0.0 0.00 0.00 0.00 99 1015.5
20260507120038 37 252 0.0 0.0 0.00 0.00 0.00 99 1015.4
20260507115534 35 252 0.0 0.0 0.00 0.00 0.00 99 1015.6
20260507115030 35 252 0.0 0.0 0.00 0.00 0.00 99 1015.5
20260507114526 34 252 0.0 0.0 0.00 0.00 0.00 99 1015.5
20260507114024 34 252 0.0 0.0 0.00 0.00 0.00 99 1015.7
20260507113520 34 252 0.0 0.0 0.00 0.00 0.00 99 1015.6
20260507113018 34 252 0.0 0.0 0.00 0.00 0.00 99 1015.4
20260507112516 34 252 0.0 0.0 0.00 0.00 0.00 99 1015.5
20260507112012 34 252 0.0 0.0 0.00 0.00 0.00 99 1015.3
20260507111510 34 252 0.0 0.0 0.00 0.00 0.00 99 1015.5
20260507111005 34 253 0.0 0.0 0.00 0.00 0.00 99 1015.2
20260507110502 34 253 0.0 0.0 0.00 0.00 0.00 99 1015.0
20260507105958 33 252 0.0 0.0 0.00 0.00 0.00 99 1015.2
20260507105455 33 252 0.0 0.0 0.00 0.00 0.00 99 1015.2
20260507104952 33 252 0.0 0.0 0.00 0.00 0.00 99 1014.9
20260507104449 33 252 0.0 0.0 0.00 0.00 0.00 99 1014.9
20260507103944 33 252 0.0 0.0 0.00 0.00 0.00 99 1014.9
20260507103442 33 252 0.0 0.0 0.00 0.00 0.00 99 1014.8
20260507102937 33 252 0.0 0.0 0.00 0.00 0.00 99 1014.9
20260507102434 33 252 0.0 0.0 0.00 0.00 0.00 99 1015.0
20260507101931 34 246 0.0 0.0 0.00 0.00 0.00 99 1014.9
20260507101426 34 245 0.0 0.0 0.00 0.00 0.00 99 1014.9
20260507100923 34 246 0.0 0.0 0.00 0.00 0.00 99 1014.8
20260507100420 34 246 0.0 0.0 0.00 0.00 0.00 99 1014.8
20260507095919 34 246 0.0 0.0 0.00 0.00 0.00 99 1014.8
20260507095415 34 246 0.0 0.0 0.00 0.00 0.00 99 1014.8
20260507094913 34 246 0.0 0.0 0.00 0.00 0.00 99 1014.7
20260507094408 34 246 0.0 0.0 0.00 0.00 0.00 99 1014.6
20260507093906 35 246 0.0 0.0 0.00 0.00 0.00 99 1014.6
20260507093404 35 246 0.0 0.0 0.00 0.00 0.00 99 1014.6
20260507092902 35 246 0.0 0.0 0.00 0.00 0.00 99 1014.8
20260507092358 35 246 0.0 0.0 0.00 0.00 0.00 99 1014.8
20260507091854 35 246 0.0 0.0 0.00 0.00 0.00 99 1014.7
20260507091351 35 246 0.0 0.0 0.00 0.00 0.00 99 1014.6
20260507090846 35 246 0.0 0.0 0.00 0.00 0.00 99 1014.9
20260507090343 36 245 0.0 0.0 0.00 0.00 0.00 99 1014.7
20260507085840 36 246 0.0 0.0 0.00 0.00 0.00 99 1015.0
20260507085337 36 246 0.0 0.0 0.00 0.00 0.00 99 1014.9
20260507084834 36 246 0.0 0.0 0.00 0.00 0.00 99 1014.9
20260507084330 37 246 0.0 0.0 0.00 0.00 0.00 99 1014.9
20260507083828 37 246 0.0 0.0 0.00 0.00 0.00 99 1014.9
20260507083324 37 246 0.0 0.0 0.00 0.00 0.00 99 1015.0
20260507082820 37 246 0.0 0.0 0.00 0.00 0.00 99 1015.0
20260507082316 37 246 0.0 0.0 0.00 0.00 0.00 99 1015.0
20260507081814 38 246 0.0 0.0 0.00 0.00 0.00 99 1014.9
20260507081309 38 244 0.0 0.0 0.00 0.00 0.00 99 1015.0
20260507080806 38 244 0.0 0.0 0.00 0.00 0.00 99 1014.8
20260507080303 39 243 0.0 0.0 0.00 0.00 0.00 99 1014.9
20260507075758 39 243 0.0 0.0 0.00 0.00 0.00 99 1014.8
20260507075254 39 243 0.0 0.0 0.00 0.00 0.00 99 1014.8
20260507074751 40 243 0.0 0.0 0.00 0.00 0.00 99 1014.8
20260507074249 40 244 0.0 0.0 0.00 0.00 0.00 99 1014.7
20260507073745 41 244 0.0 0.0 0.00 0.00 0.00 98 1014.7
20260507073242 41 242 0.0 0.0 0.00 0.00 0.00 98 1014.6
20260507072740 42 242 0.0 0.0 0.00 0.00 0.00 98 1014.7
20260507072237 42 242 0.0 0.0 0.00 0.00 0.00 98 1014.5
20260507071734 42 242 0.0 0.0 0.00 0.00 0.00 98 1014.6
20260507071230 43 242 0.0 0.0 0.00 0.00 0.00 97 1014.5
20260507070727 44 243 0.0 0.0 0.00 0.00 0.00 97 1014.7
20260507070224 44 242 0.0 0.0 0.00 0.00 0.00 97 1014.8
20260507065721 45 242 0.0 0.0 0.00 0.00 0.00 96 1014.6
20260507065218 45 242 0.0 0.0 0.00 0.00 0.00 96 1014.7
20260507064715 45 242 0.0 0.0 0.00 0.00 0.00 96 1014.7
20260507064215 46 242 0.0 0.0 0.00 0.00 0.00 98 1014.7
20260507063711 46 242 0.0 0.0 0.00 0.00 0.00 98 1014.8
20260507063207 46 242 0.0 0.0 0.00 0.00 0.00 98 1014.7
20260507062705 46 242 0.0 0.0 0.00 0.00 0.00 99 1014.6
20260507062202 46 242 0.0 0.0 0.00 0.00 0.00 99 1014.7
20260507061700 46 242 0.0 0.0 0.00 0.00 0.00 99 1014.6
20260507061158 47 242 0.0 0.0 0.00 0.00 0.00 99 1014.7
20260507060656 47 242 0.0 0.0 0.00 0.00 0.00 99 1015.0
20260507060152 47 242 0.0 0.0 0.00 0.00 0.00 99 1014.6
20260507055648 47 242 0.0 0.0 0.00 0.00 0.00 99 1014.9
20260507055144 47 242 0.0 0.0 0.00 0.00 0.00 99 1014.8
20260507054640 47 242 0.0 0.0 0.00 0.00 0.00 98 1014.9
20260507054137 47 242 0.0 0.0 0.00 0.00 0.00 98 1014.9
20260507053635 47 242 0.0 0.0 0.00 0.00 0.00 98 1015.0
20260507053132 47 242 0.0 0.0 0.00 0.00 0.00 98 1015.1
20260507052631 48 242 0.0 0.0 0.00 0.00 0.00 98 1015.1
20260507052126 48 242 0.0 0.0 0.00 0.00 0.00 97 1015.3
20260507051624 48 242 0.0 0.0 0.00 0.00 0.00 97 1015.1
20260507051121 48 242 0.0 0.0 0.00 0.00 0.00 97 1015.1
20260507050618 47 242 0.0 0.0 0.00 0.00 0.00 97 1015.2
20260507050114 48 242 0.0 0.0 0.00 0.43 0.43 97 1015.2
20260507045612 48 242 0.0 0.0 0.00 0.43 0.43 97 1015.4
20260507045108 48 242 0.0 0.0 0.00 0.43 0.43 97 1015.2
20260507044605 48 242 0.0 0.0 0.00 0.43 0.43 98 1015.2
20260507044102 48 242 0.0 0.0 0.00 0.43 0.43 97 1015.2
20260507043557 48 242 0.0 0.0 0.00 0.43 0.43 97 1015.1
20260507043055 48 242 0.0 0.0 0.00 0.43 0.43 97 1015.1
20260507042551 48 242 0.0 0.0 0.00 0.43 0.43 97 1015.0
20260507042046 48 242 0.0 0.0 0.00 0.43 0.43 97 1015.0
20260507041544 48 242 0.0 0.0 0.00 0.43 0.43 97 1015.1
20260507041041 48 242 0.0 0.0 0.00 0.43 0.43 97 1014.9
20260507040537 48 242 0.0 0.0 0.00 0.43 0.43 97 1015.0
20260507040033 49 242 0.0 0.0 0.00 0.43 0.43 97 1015.0
20260507035529 49 242 0.0 0.0 0.00 0.43 0.43 97 1015.1
20260507035026 49 242 0.0 0.0 0.00 0.43 0.43 97 1015.1
20260507034523 49 242 0.0 0.0 0.00 0.43 0.43 97 1014.9
20260507034021 49 242 0.0 0.0 0.00 0.43 0.43 97 1015.1
20260507033518 49 242 0.0 0.0 0.00 0.43 0.43 97 1014.8
20260507033015 49 242 0.0 0.0 0.00 0.43 0.43 97 1015.0
20260507032512 49 242 0.0 0.0 0.00 0.43 0.43 97 1015.3
20260507032009 49 242 0.0 0.0 0.00 0.43 0.43 97 1015.1
20260507031504 49 242 0.0 0.0 0.00 0.43 0.43 97 1015.0
20260507025453 50 242 0.0 0.0 0.00 0.43 0.43 97 1014.7
20260507024951 50 242 0.0 0.0 0.00 0.43 0.43 97 1014.7
20260507024448 50 242 0.0 0.0 0.00 0.43 0.43 97 1014.6
20260507023944 50 242 0.0 0.0 0.00 0.43 0.43 98 1014.5
20260507023441 50 242 0.0 0.0 0.00 0.43 0.43 98 1014.5
20260507022938 50 242 0.0 0.0 0.00 0.43 0.43 98 1014.6
20260507022435 50 242 0.0 0.0 0.00 0.43 0.43 98 1014.6
20260507021930 50 242 0.0 0.0 0.00 0.43 0.43 98 1014.4
20260507021426 50 242 0.0 0.0 0.00 0.43 0.43 98 1014.6
20260507020924 50 242 0.0 0.0 0.00 0.43 0.43 98 1014.3
20260507020420 50 239 0.0 0.0 0.00 0.43 0.43 98 1014.3
20260507015917 50 238 0.0 0.0 0.00 0.43 0.43 98 1014.3
20260507015416 50 237 0.0 0.0 0.00 0.43 0.43 97 1014.4
20260507014912 50 237 0.0 0.0 0.00 0.43 0.43 97 1014.3
20260507014409 50 237 0.0 0.0 0.00 0.43 0.43 98 1014.0
20260507013905 50 237 0.0 0.0 0.00 0.43 0.43 98 1014.1
20260507013402 50 237 0.0 0.0 0.00 0.43 0.43 98 1013.7